Reflectivity
34 30 16 16 3 -18 -20 -20 -20 -20 -18 3 -20 -20 -20 -20 -20 -20 -20 -20 -20 -20 -20 -20 -20 -20 -20
30 37 37 23 6 -19 3 -20 -4 -20 -12 1 -20 -20 -20 -8 -20 -20 -11 -20 -20 -20 -20 -20 -20 -20 -20
24 33 34 33 12 -4 -1 7 -4 -17 -2 -20 -2 -16 -16 -20 -20 -20 2 -20 -20 -20 -20 -20 -20 -20 -20
24 23 27 33 34 19 -16 -18 -19 -12 -20 -14 -8 -20 -20 -20 -20 -15 -1 -20 -20 -20 -20 -20 -20 -20 -20
26 16 13 24 33 22 5 -20 3 5 -20 -20 -20 -20 -20 -20 -20 -7 -3 -20 -20 -20 -20 -20 -20 -20 -20
28 23 22 18 30 34 29 12 -20 -20 -20 -20 -20 -20 -20 -20 -20 -19 -19 -20 -20 -20 -20 -20 -20 -20 -20
28 27 20 20 25 35 36 33 19 -20 -20 -20 -20 -20 -20 -20 -20 -20 -20 -19 -20 -20 -20 -20 -20 -20 -20
13 21 22 27 36 31 18 34 35 29 14 -17 -20 -20 -20 -20 -20 -17 7 -5 -20 -20 -20 -20 -20 -20 -20
3 12 13 29 36 33 24 12 27 28 22 9 -20 -16 -20 -20 -20 -19 -20 1 -20 -20 -20 -20 -20 -20 -0
-5 -6 9 31 32 24 21 11 9 25 26 17 10 -14 -20 -20 -11 5 3 -12 -20 -20 -20 -20 -20 -20 -20
-14 1 4 27 33 27 22 21 18 22 19 28 22 7 17 -10 -4 19 23 -20 -20 -16 -20 -20 -20 -20 -20
6 1 -8 -11 29 19 28 23 23 13 26 26 27 14 15 6 -8 10 9 -7 -19 -18 -20 -20 -20 -20 -20
-2 1 -2 -8 11 26 33 31 32 23 34 26 29 29 16 12 -5 14 2 -19 -6 -20 -20 -20 -20 -20 -11
-3 -8 -5 -2 20 29 34 35 33 22 21 19 26 30 23 19 7 15 8 -6 -11 -20 -20 -20 -20 -20 -20
-17 -1 1 1 15 20 33 39 37 29 24 24 30 31 29 19 15 23 -2 -2 -20 -20 -20 -20 -20 -20 -20
-20 -3 5 -12 14 16 28 38 33 34 25 23 29 31 29 22 16 11 -2 11 -6 -20 -20 -20 -20 -20 -20
-20 -16 12 3 13 17 21 36 34 33 27 16 26 31 25 14 9 26 8 17 -1 -20 -20 -19 -20 -20 -20
Wind_Speed
3 2 3 5 5 7 6 9 8 17 17 15 13 12 12 10 10 9 8 6 3 0 2 4 6 7 9
5 3 5 4 4 7 6 7 8 13 17 16 15 14 13 12 12 11 10 8 6 2 2 3 4 6 8
9 3 2 1 2 2 3 4 4 8 16 18 17 15 14 13 14 13 12 11 8 5 3 2 3 4 7
12 4 2 3 2 4 3 3 3 3 6 8 13 14 16 15 16 14 13 12 10 8 6 3 4 5 7
10 4 2 2 6 3 5 2 3 3 4 3 4 4 6 14 13 16 15 14 11 10 7 6 5 6 6
9 11 13 6 3 4 2 3 2 4 4 4 3 4 4 5 15 17 16 15 13 11 9 7 7 7 6
15 14 14 15 6 6 8 3 5 3 3 3 1 3 2 4 16 17 17 15 14 13 11 9 8 8 6
13 14 13 13 10 12 11 4 2 2 3 4 3 1 2 2 15 17 16 15 15 14 12 10 9 9 8
17 22 22 20 16 6 6 6 3 3 4 5 3 3 3 1 5 17 16 15 16 14 12 11 10 10 7
13 15 17 14 14 17 9 9 4 1 5 6 3 5 3 3 3 5 5 15 15 15 14 13 11 4 3
14 12 10 13 5 12 12 11 8 5 7 8 4 4 3 4 3 3 4 5 3 8 14 13 13 9 4
11 11 10 10 10 8 13 12 11 10 9 10 5 8 6 4 5 5 3 3 3 4 3 10 12 11 7
11 11 10 11 12 8 11 13 5 4 9 15 5 9 5 5 6 9 9 7 4 5 4 4 4 3 7
12 11 11 11 12 10 9 9 9 4 4 11 5 9 5 2 3 10 5 8 9 6 5 3 3 3 4
11 12 11 12 12 9 9 8 12 9 7 3 3 6 3 7 4 9 9 3 10 10 6 4 1 3 4
11 11 10 11 12 7 8 9 11 10 10 7 8 6 2 2 2 9 5 6 8 11 9 5 5 3 4
12 12 10 9 15 10 9 10 9 8 8 10 12 12 11 10 1 6 7 7 11 9 6 2 5 6 3
Wind_Direction
228 247 249 230 227 217 203 205 212 209 206 202 193 188 192 188 173 184 184 183 187 273 36 39 33 32 38
255 224 233 260 245 220 215 216 212 206 202 197 194 191 193 189 178 178 178 178 173 184 118 67 46 50 46
266 207 187 257 290 303 226 222 212 203 205 199 193 193 193 186 175 172 178 172 174 176 159 104 86 80 60
301 265 202 173 205 226 236 229 204 186 205 196 187 188 192 182 173 170 173 176 176 173 169 150 124 93 70
299 287 222 165 198 208 231 158 199 172 165 193 146 159 190 172 166 169 175 176 177 173 174 162 141 105 84
288 286 292 237 200 204 179 150 232 192 150 177 137 176 167 166 171 172 178 176 175 170 174 166 146 120 102
277 272 288 282 227 215 217 178 193 184 113 147 130 159 145 174 172 176 180 174 172 168 171 164 152 130 116
275 275 276 302 273 225 223 201 64 140 147 153 152 153 107 196 182 178 181 174 173 169 171 165 157 137 129
289 301 271 277 283 232 184 173 223 199 178 109 177 122 97 187 190 184 181 179 176 171 171 164 159 144 130
296 293 294 281 275 228 211 205 173 183 189 135 152 146 149 198 211 183 179 186 177 173 170 167 154 125 122
291 284 288 282 251 230 225 211 207 234 181 150 156 157 88 146 184 177 161 175 160 168 172 167 164 158 151
287 281 283 273 263 214 236 224 222 220 174 169 147 173 141 170 167 163 155 171 137 143 145 163 164 166 165
277 275 275 278 267 246 226 240 225 166 180 191 141 183 172 156 158 170 149 191 166 150 148 139 148 160 154
278 278 280 276 255 244 221 207 210 197 204 189 174 179 186 136 132 162 162 170 165 166 138 114 144 177 190
273 274 275 280 252 233 217 209 214 205 184 163 116 125 44 141 125 178 161 141 162 151 139 127 139 177 200
270 268 270 283 271 224 205 209 211 207 188 176 145 139 115 39 62 163 156 131 153 153 142 123 153 198 197
279 282 286 278 297 243 207 209 210 205 193 176 172 183 181 191 45 186 157 137 149 153 141 122 160 170 173